EHI
0 0 0 0 0 0 0 0 0 0 0 0 0 0 0 0 0 0 0 0 1 2 3 3 3 3 2 1 0 0 0 0 0 0 0 0 0 0 0 0 0 0 0 0
0 0 0 0 0 0 0 0 0 0 0 0 0 0 0 0 0 0 0 0 1 2 3 3 3 2 2 1 0 0 0 0 0 0 0 0 0 0 0 0 0 0 0 0
0 0 0 0 0 0 0 0 0 0 0 0 0 0 0 0 0 0 0 0 0 1 1 2 1 1 1 0 0 0 0 0 0 0 0 0 0 0 0 0 0 0 0 0
0 0 0 0 0 0 0 0 0 0 0 0 0 0 0 0 0 0 0 0 0 0 0 0 0 0 0 0 0 0 0 0 0 0 0 0 0 0 0 0 0 0 0 0
0 0 0 0 0 0 0 0 0 0 0 0 0 0 0 0 0 0 0 0 0 0 0 0 0 0 0 0 0 0 0 0 0 0 0 0 0 0 0 0 0 0 0 0
0 0 0 0 0 0 0 0 0 0 0 0 0 0 0 0 0 0 0 0 0 0 0 0 0 0 0 0 0 0 0 0 0 0 0 0 0 0 0 0 0 0 0 0
0 0 0 0 0 0 0 0 0 0 0 0 0 0 0 0 0 0 0 0 0 0 0 0 0 0 0 0 0 0 0 0 0 0 0 0 0 0 0 0 0 0 0 0
0 0 0 0 0 0 0 0 0 0 0 0 0 0 0 0 0 0 0 0 0 0 0 0 0 0 0 0 0 0 0 0 0 0 0 0 0 0 0 0 0 0 0 0
0 0 0 0 0 0 0 0 0 0 0 0 0 0 0 0 0 0 0 0 0 0 0 0 0 0 0 0 0 0 0 0 0 0 0 0 0 0 0 0 0 0 0 0
0 0 0 0 0 0 0 0 0 0 0 0 0 0 0 0 0 0 0 0 0 0 0 0 0 0 0 0 0 0 0 0 0 0 0 0 0 0 0 0 0 0 0 0
0 0 0 0 0 0 0 0 0 0 0 0 0 0 0 0 0 0 0 0 0 0 0 0 0 0 0 0 0 0 0 0 0 0 0 0 0 0 0 0 0 0 0 0
0 0 0 0 0 0 0 0 0 0 0 0 0 0 0 0 0 0 0 0 0 0 0 0 0 0 0 0 0 0 0 0 0 0 0 0 0 0 0 0 0 0 0 0
0 0 0 0 0 0 0 0 0 0 0 0 0 0 0 0 0 0 0 0 0 0 0 0 0 0 0 0 0 0 0 0 0 0 0 0 0 0 0 0 0 0 0 0
0 0 0 0 0 0 0 0 0 0 0 0 0 0 0 0 0 0 0 0 0 0 0 0 0 0 0 0 0 0 0 0 0 0 0 0 0 0 0 0 0 0 0 0
0 0 0 0 0 0 0 0 0 0 0 0 0 0 0 0 0 0 0 0 0 0 0 0 0 0 0 0 0 0 0 0 0 0 0 0 0 0 0 0 0 0 0 0
0 0 0 0 0 0 0 0 0 0 0 0 0 0 0 0 0 0 0 0 0 0 0 0 0 0 0 0 0 0 0 0 0 0 0 0 0 0 0 0 0 0 0 0
0 0 0 0 0 0 0 0 0 0 0 0 0 0 0 0 0 0 0 0 0 0 0 0 0 0 0 0 0 0 0 0 0 0 0 0 0 0 0 0 0 0 0 0
0 0 0 0 0 0 0 0 0 0 0 0 0 0 0 0 0 0 0 0 0 0 0 0 0 0 0 0 0 0 0 0 0 0 0 0 0 0 0 0 0 0 0 0
0 0 0 0 0 0 0 0 0 0 0 0 0 0 0 0 0 0 0 0 0 0 0 0 0 0 0 0 0 0 0 0 0 0 0 0 0 0 0 0 0 0 0 0
0 0 0 0 0 0 0 0 0 0 0 0 0 0 0 0 0 0 0 0 0 0 0 0 0 0 0 0 0 0 0 0 0 0 0 0 0 0 0 0 0 0 0 0
0 0 0 0 0 0 0 0 0 0 0 0 0 0 0 0 0 0 0 0 0 0 0 0 0 0 0 0 0 0 0 0 0 0 0 0 0 0 0 0 0 0 0 0
0 0 0 0 0 0 0 0 0 0 0 0 0 0 0 0 0 0 0 0 0 0 0 0 0 0 0 0 0 0 0 0 0 0 0 0 0 0 0 0 0 0 0 0
0 0 0 0 0 0 0 0 0 0 0 0 0 0 0 0 0 0 0 0 0 0 0 0 0 0 0 0 0 0 0 0 0 0 0 0 0 0 0 0 0 0 0 0
0 0 0 0 0 0 0 0 0 0 0 0 0 0 0 0 0 0 0 0 0 0 0 0 0 0 0 0 0 0 0 0 0 0 0 0 0 0 0 0 0 0 0 0
0 0 0 0 0 0 0 0 0 0 0 0 0 0 0 0 0 0 0 0 0 0 0 0 0 0 0 0 0 0 0 0 0 0 0 0 0 0 0 0 0 0 0 0
0 0 0 0 0 0 0 0 0 0 0 0 0 0 0 0 0 0 0 0 0 0 0 0 0 0 0 0 0 0 0 0 0 0 0 0 0 0 0 0 0 0 0 0
0 0 0 0 0 0 0 0 0 0 0 0 0 0 0 0 0 0 0 0 0 0 0 0 0 0 0 0 0 0 0 0 0 0 0 0 0 0 0 0 0 0 0 0
Wind_Speed
2 0 1 3 3 4 5 5 2 3 9 11 10 8 7 6 5 5 4 4 4 3 3 3 3 3 4 4 4 4 3 3 4 5 5 5 5 5 5 4 6 5 6 6
5 4 4 5 5 5 5 3 2 3 4 8 10 9 7 6 5 4 3 3 3 3 3 3 3 3 3 3 3 3 3 4 4 5 5 5 5 6 6 6 5 5 5 7
6 5 6 7 7 8 6 5 5 4 5 11 10 9 7 6 5 4 3 3 3 3 3 3 3 3 3 4 4 4 4 4 4 5 5 5 6 6 6 6 5 5 6 6
6 6 8 2 3 2 3 3 3 4 7 10 8 7 5 6 5 4 3 2 2 3 3 3 4 4 3 4 4 4 4 5 5 5 5 5 5 6 6 6 6 5 6 6
6 7 4 5 5 4 4 3 4 6 8 9 8 6 5 6 5 4 3 2 2 3 3 4 4 4 4 4 4 4 4 5 5 5 6 5 6 6 5 5 6 6 6 6
6 7 5 5 8 5 3 4 5 6 8 9 8 5 4 6 5 4 4 2 2 2 3 4 4 4 4 4 4 4 4 5 6 6 6 6 6 6 5 5 6 6 7 7
8 8 1 8 7 5 4 2 7 6 7 8 6 2 5 7 5 4 3 2 1 2 2 3 4 4 4 4 5 5 4 5 6 6 6 6 5 5 6 6 6 6 7 6
7 8 3 8 6 3 3 7 6 5 5 6 6 6 6 5 4 3 2 1 1 1 2 2 3 3 4 4 4 5 5 5 6 6 6 7 5 5 5 6 6 6 7 6
1 3 6 5 3 4 5 4 4 4 5 6 6 5 4 3 3 2 1 0 1 1 2 2 2 3 4 4 4 5 5 5 6 6 5 5 5 5 5 5 5 5 5 6
1 3 5 4 4 3 3 3 3 4 3 4 4 4 3 2 2 1 1 0 1 2 2 3 3 3 3 4 4 6 6 5 5 5 5 5 4 4 4 4 4 5 5 6
4 2 3 3 3 3 3 3 3 3 2 2 2 3 2 2 1 1 1 1 1 2 2 3 4 4 3 4 5 5 6 6 5 5 5 5 5 5 5 5 5 6 5 6
4 1 2 2 2 4 3 2 2 2 2 1 1 2 2 1 1 1 1 1 2 2 3 4 5 5 4 4 4 5 6 6 4 4 4 4 5 6 8 9 11 12 11 10
3 1 0 2 3 3 3 3 2 2 2 2 1 1 1 1 1 1 2 3 3 3 3 4 5 5 5 4 4 5 6 6 4 4 5 5 5 6 7 8 10 11 12 12
1 1 1 2 3 3 3 3 3 3 2 2 1 1 1 1 1 2 3 3 3 4 4 4 5 5 5 5 4 5 6 6 6 4 4 5 6 6 6 6 7 6 7 10
3 2 2 2 3 3 3 3 3 3 3 2 2 2 2 2 3 3 3 3 4 4 5 5 5 5 5 4 4 5 5 4 5 5 5 6 7 7 6 7 6 6 6 6
3 3 3 3 4 4 4 4 4 4 3 3 2 3 3 3 3 3 4 4 4 5 5 5 5 5 4 5 5 4 5 9 8 6 6 7 6 6 6 6 6 6 6 6
5 5 4 4 4 4 4 4 4 4 4 3 3 3 3 4 4 4 4 4 5 5 5 5 5 4 5 5 5 4 5 6 10 8 6 7 6 7 7 6 6 6 6 7
3 3 4 4 4 3 4 4 3 4 4 3 3 3 4 5 5 5 4 5 5 6 5 5 4 4 5 5 5 5 5 5 5 6 7 7 7 7 7 7 7 8 7 7
3 3 3 3 3 3 3 3 3 3 3 3 3 4 4 5 5 5 5 5 6 6 5 4 6 6 6 6 7 4 5 6 7 7 7 10 9 7 7 7 7 7 7 6
3 3 3 3 3 3 3 3 3 3 3 3 4 4 4 5 4 5 6 6 4 4 4 4 5 6 6 6 7 5 6 7 8 8 8 8 8 8 7 8 7 7 6 6
3 3 3 3 3 3 4 4 4 4 4 4 4 5 5 5 5 5 5 5 5 4 4 6 5 5 5 6 8 6 6 7 8 8 8 8 8 8 8 8 7 7 7 7
3 3 3 4 4 4 4 5 5 5 5 5 5 5 5 6 6 6 6 5 5 6 4 4 4 6 8 9 5 6 7 8 8 8 8 8 8 8 8 8 8 7 7 6
3 4 4 5 5 6 6 5 6 5 5 5 5 6 6 5 4 5 6 4 4 6 5 4 7 11 13 8 6 7 8 9 8 8 8 8 7 7 7 8 8 7 6 6
5 5 5 5 6 6 6 6 5 4 5 5 5 5 5 5 5 4 5 6 8 8 5 7 11 14 12 6 7 7 8 8 8 8 8 7 7 7 7 7 7 7 7 8
6 6 6 6 6 5 6 6 6 5 5 4 5 5 5 4 4 4 5 5 7 8 6 8 13 14 9 6 7 7 7 7 8 8 7 7 7 7 7 7 8 8 7 7
6 5 5 5 5 4 4 4 4 4 4 4 4 4 4 4 4 4 4 5 8 9 7 5 6 7 6 6 7 7 7 8 9 8 8 7 8 7 7 8 10 8 7 7
6 6 4 4 4 3 4 4 4 4 4 5 5 4 4 4 4 5 6 5 6 6 6 5 6 6 6 6 6 7 7 7 7 7 7 7 6 6 7 9 8 8 7 7
Wind_Direction
276 270 302 269 249 242 257 274 279 132 143 160 156 146 138 130 116 105 88 74 63 49 44 26 26 18 17 3 359 0 4 353 339 331 334 335 334 324 315 309 308 307 314 307
251 221 220 240 241 241 249 249 197 149 130 138 141 137 138 135 124 109 86 63 50 41 34 15 13 11 11 354 348 349 355 350 341 339 338 334 328 327 325 315 308 307 309 308
270 224 217 230 220 218 220 212 201 201 154 141 142 148 149 142 131 116 91 64 40 28 23 3 5 11 4 347 342 348 359 353 345 338 333 328 327 324 314 307 302 299 294 295
264 240 243 119 75 136 181 206 184 134 129 142 144 139 136 130 123 111 95 71 39 18 8 359 8 6 355 349 353 360 2 349 340 334 332 322 315 310 305 308 306 299 293 288
267 262 246 165 160 159 176 204 176 156 138 134 132 138 141 123 117 111 94 71 41 13 2 359 3 356 347 346 354 1 354 339 336 333 326 315 309 303 302 305 304 297 293 288
264 262 260 126 129 140 176 201 172 159 147 146 154 176 160 133 116 101 83 62 38 7 357 358 354 345 337 341 352 352 344 332 328 319 315 303 301 302 302 299 296 300 298 292
252 260 268 111 129 152 195 156 136 145 147 161 176 138 117 123 113 104 93 71 32 7 360 350 340 335 337 345 342 336 329 320 314 311 308 300 301 305 305 303 304 303 298 294
228 241 191 131 149 172 92 100 117 122 130 133 117 105 111 119 120 121 111 78 12 355 345 330 327 333 334 333 330 324 316 309 306 306 308 316 309 304 304 305 304 303 302 304
350 75 97 130 114 85 96 111 112 111 112 127 131 129 128 130 132 135 137 115 346 333 314 310 325 336 320 322 322 313 306 304 301 304 306 312 312 312 310 309 305 305 307 308
336 131 135 139 122 109 106 104 97 103 112 131 138 141 139 142 153 158 160 210 303 306 308 316 323 309 306 316 317 314 308 305 307 312 315 320 314 302 302 303 303 306 309 307
256 194 159 166 154 140 120 121 130 127 133 146 150 158 156 173 182 177 206 250 275 296 302 304 305 299 305 311 314 312 312 311 310 311 309 308 305 295 295 285 282 287 286 290
247 186 184 162 141 150 155 168 168 163 167 165 178 186 183 190 172 218 258 273 285 293 296 300 304 306 305 305 309 313 314 311 307 307 304 302 302 301 293 286 287 284 276 279
318 358 16 146 156 167 186 194 195 192 195 206 200 195 201 190 204 243 269 279 285 291 295 300 306 308 306 306 310 311 307 307 307 304 303 302 303 299 299 297 286 284 285 287
354 69 183 169 171 187 200 197 202 209 211 206 199 188 214 244 250 258 270 279 286 290 290 294 299 303 306 307 306 304 305 306 307 300 302 299 293 289 286 291 298 296 290 289
230 227 212 185 188 199 197 199 212 219 220 211 193 204 227 246 257 265 277 284 285 285 289 294 296 298 303 306 307 305 304 297 297 299 295 291 287 285 282 285 287 291 294 294
225 222 201 195 201 205 206 213 223 230 229 226 225 233 240 246 258 266 269 271 276 281 286 291 294 299 306 308 304 298 289 292 298 295 292 289 287 290 289 285 286 287 286 286
212 202 196 203 209 215 220 228 235 240 238 235 238 241 245 249 254 258 263 267 271 275 279 284 288 297 305 306 302 294 289 291 297 296 288 290 291 291 290 284 282 282 282 281
205 201 203 208 211 222 234 240 247 255 255 251 253 253 253 255 258 261 267 273 277 278 280 285 292 302 302 300 298 292 292 292 291 289 289 288 288 289 288 283 281 282 283 283
202 210 216 223 223 226 237 247 256 266 275 274 268 263 262 263 267 273 276 276 277 279 280 285 293 294 293 290 295 287 289 291 293 293 290 290 290 286 287 284 281 281 284 285
211 212 222 228 234 242 251 257 261 263 268 272 273 271 270 272 276 278 279 276 270 271 283 298 297 291 290 292 301 294 293 293 292 291 288 285 286 286 285 285 282 279 280 279
221 224 233 239 242 249 255 258 257 254 256 258 264 268 272 276 277 278 277 276 275 279 286 290 285 280 284 299 302 293 291 289 288 288 287 287 287 286 285 287 286 282 280 280
239 236 240 245 249 255 257 259 259 261 259 256 258 264 269 271 274 274 270 268 271 277 276 274 277 286 297 303 290 286 285 286 285 284 285 284 284 284 285 286 284 280 280 278
255 256 258 259 258 260 264 263 264 264 260 260 262 264 264 264 267 271 277 275 277 280 279 273 282 289 295 293 282 282 283 284 285 285 285 284 284 286 287 289 286 281 279 278
267 267 268 270 271 269 268 269 269 268 267 266 263 264 268 269 266 262 266 275 277 279 275 274 281 286 290 282 278 279 280 282 282 284 286 288 289 289 289 291 291 287 281 279
271 271 269 272 270 270 274 278 280 276 275 271 270 268 267 262 265 271 276 282 285 283 276 280 284 287 283 278 278 280 283 284 288 291 287 286 285 286 287 287 288 285 281 277
267 268 267 267 270 272 274 273 271 271 275 277 276 275 277 276 274 274 275 279 281 283 279 275 274 276 275 278 280 284 286 290 291 287 283 283 284 286 289 291 291 289 285 282
271 269 265 262 261 260 265 268 269 270 271 273 277 281 284 287 285 284 285 283 283 280 279 279 280 280 280 280 281 284 286 286 285 284 285 285 285 285 287 290 290 289 287 284